NOAA 15 1 25338U 98030A 22146.17934701 .00000225 00000-0 11215-3 0 9990 2 25338 98.6454 176.0047 0010412 9.6770 350.4609 14.26129709250095 METEOSAT 8 (MSG 1) 1 27509U 02040B 22145.89077012 .00000130 00000-0 00000+0 0 9990 2 27509 7.9986 50.7835 0002454 329.1505 225.7299 1.00278137 72376 KALPANA 1 (METSAT 1) 1 27525U 02043A 22145.30665313 -.00000014 00000-0 00000-0 0 9997 2 27525 10.5955 43.1257 0008985 64.7996 143.1841 0.98337086 71892 NOAA 18 1 28654U 05018A 22146.18001392 .00000176 00000-0 11883-3 0 9996 2 28654 98.9495 216.6329 0014804 38.7609 321.4622 14.12733412876920 METEOSAT 9 (MSG 2) 1 28912U 05049B 22145.84021804 .00000124 00000-0 00000-0 0 9998 2 28912 5.9718 66.4491 0001355 351.7178 173.5046 1.00265105 60169 HIMAWARI 7 1 28937U 06004A 22145.80053378 .00000007 00000-0 00000-0 0 9994 2 28937 1.9529 89.9587 0003873 50.0001 238.6405 0.99077203 59526 FORMOSAT 3A 1 29047U 06011A 22146.14911308 .00000383 00000-0 16558-3 0 9994 2 29047 71.9775 105.3343 0052079 280.5996 78.9277 14.28962343842412 FORMOSAT 3B 1 29048U 06011B 22145.90595580 .00000389 00000-0 16881-3 0 9993 2 29048 71.9679 15.9236 0045090 241.9274 117.7300 14.28929695844816 FORMOSAT 3C 1 29049U 06011C 22145.51792399 .00000356 00000-0 15581-3 0 9998 2 29049 72.0196 192.3857 0036754 262.4825 97.2136 14.29012743840553 FORMOSAT 3D 1 29050U 06011D 22143.68840889 .00001904 00000-0 40512-3 0 9996 2 29050 72.0166 269.9244 0048117 123.7555 236.8197 14.59444139859175 FORMOSAT 3E 1 29051U 06011E 22144.59137182 .00000524 00000-0 21771-3 0 9996 2 29051 72.0044 94.9529 0067269 144.9761 215.5828 14.29048620843008 FORMOSAT 3F 1 29052U 06011F 22146.21816268 .00000358 00000-0 15587-3 0 9990 2 29052 72.0323 167.9564 0041396 220.3772 139.4291 14.29157684841628 GOES 13 1 29155U 06018A 22145.89790076 .00000034 00000-0 00000-0 0 9994 2 29155 0.5460 96.9021 0002148 91.0248 80.3267 1.00268248 28507 METOP-A 1 29499U 06044A 22145.90401622 .00002154 00000-0 29213-3 0 9997 2 29499 98.4519 189.7918 0199386 78.8617 256.7288 14.67181189807365 FENGYUN 2D 1 29640U 06053A 22144.90329747 -.00000112 00000-0 00000-0 0 9994 2 29640 8.1168 50.3653 0014173 9.4257 173.6097 0.98193472 56425 FENGYUN 3A 1 32958U 08026A 22145.89946046 .00000165 00000-0 99636-4 0 9992 2 32958 98.5007 109.4550 0009969 88.5365 271.6953 14.18717555725135 FENGYUN 2E 1 33463U 08066A 22145.88353642 -.00000207 00000-0 00000-0 0 9992 2 33463 5.8584 65.4436 0004291 11.8652 210.9380 1.00269242 49213 NOAA 19 1 33591U 09005A 22146.17869886 .00000194 00000-0 12977-3 0 9996 2 33591 99.1493 179.8458 0012934 248.8449 111.1340 14.12568423685307 GOES 14 1 35491U 09033A 22145.59493167 -.00000095 00000-0 00000-0 0 9990 2 35491 0.2682 95.0722 0011677 118.9776 138.7282 1.00270973 47234 METEOR-M 1 35865U 09049A 22145.88504677 .00000147 00000-0 85150-4 0 9993 2 35865 98.5262 117.0859 0001341 315.6739 44.4331 14.22333947658472 GOES 15 1 36411U 10008A 22145.66206050 .00000050 00000-0 00000-0 0 9998 2 36411 0.2402 103.6847 0001755 339.1779 270.8817 1.00261687 44799 COMS 1 1 36744U 10032A 22145.76017403 -.00000348 00000-0 00000-0 0 9998 2 36744 1.0095 93.0788 0000854 346.6604 205.3782 1.00271051 36218 FENGYUN 3B 1 37214U 10059A 22146.13692724 .00000010 00000-0 29342-4 0 9996 2 37214 99.0921 151.7142 0023143 59.5394 300.8064 14.14254722597800 NPP 1 37849U 11061A 22146.06722705 .00000077 00000-0 57084-4 0 9996 2 37849 98.7319 84.9305 0001350 78.9630 340.9269 14.19567097548011 FENGYUN 2F 1 38049U 12002A 22145.85338799 -.00000360 00000-0 00000-0 0 9995 2 38049 3.7394 79.8638 0003694 16.3070 206.5465 1.00264027 38003 METEOSAT 10 (MSG 3) 1 38552U 12035B 22145.83297894 .00000057 00000-0 00000-0 0 9990 2 38552 1.4922 39.7994 0000362 10.5074 142.4833 1.00263849 35985 METOP-B 1 38771U 12049A 22146.17252103 .00000124 00000-0 76774-4 0 9990 2 38771 98.6968 206.2533 0001949 106.5960 314.1329 14.21484322502567 FENGYUN 3C 1 39260U 13052A 22146.08136267 .00000109 00000-0 76045-4 0 9995 2 39260 98.4552 175.3264 0010825 345.9161 14.1710 14.15922598448756 METEOR M2 1 40069U 14037A 22146.20907592 .00000050 00000-0 42315-4 0 9997 2 40069 98.4325 165.0271 0006442 36.5662 323.5957 14.20709167408708 HIMAWARI 8 1 40267U 14060A 22145.85914439 -.00000279 00000-0 00000-0 0 9996 2 40267 0.0273 83.8579 0000665 1.4118 248.0980 1.00269636 27884 FENGYUN 2G 1 40367U 14090A 22145.88461543 -.00000307 00000-0 00000-0 0 9998 2 40367 1.8809 89.6540 0001572 351.9750 220.1854 1.00273783 27120 METEOSAT 11 (MSG 4) 1 40732U 15034A 22145.83097292 -.00000010 00000-0 00000-0 0 9995 2 40732 0.2500 47.0397 0001345 55.9933 79.1483 1.00273360 25159 ELEKTRO-L 2 1 41105U 15074A 22145.61289860 -.00000119 00000-0 00000-0 0 9994 2 41105 2.9331 88.3745 0001730 36.9910 323.9102 1.00272381 23644 HIMAWARI 9 1 41836U 16064A 22145.71559260 -.00000280 00000-0 00000-0 0 9999 2 41836 0.0165 312.9236 0000444 152.1001 176.6062 1.00267677 20314 GOES 16 1 41866U 16071A 22145.60077528 -.00000252 00000-0 00000-0 0 9999 2 41866 0.0450 261.2592 0000726 204.2769 278.7029 1.00271917 20238 FENGYUN 4A 1 41882U 16077A 22145.70836777 -.00000334 00000-0 00000-0 0 9994 2 41882 0.0860 294.0534 0004587 195.8056 112.9878 1.00272668 20105 CYGFM05 1 41884U 16078A 22145.85775605 .00004336 00000-0 22010-3 0 9998 2 41884 34.9566 342.5512 0015948 250.7060 109.1927 15.16230516301350 CYGFM04 1 41885U 16078B 22145.91766465 .00004154 00000-0 20785-3 0 9995 2 41885 34.9496 331.5367 0014478 267.0110 92.8945 15.16757224301564 CYGFM02 1 41886U 16078C 22145.84317757 .00004411 00000-0 22034-3 0 9999 2 41886 34.9590 334.2015 0015138 260.7956 99.1043 15.16795855301473 CYGFM01 1 41887U 16078D 22144.27639136 .00012522 00000-0 63524-3 0 9995 2 41887 34.9571 354.7516 0015788 235.5807 124.3412 15.16035470301068 CYGFM08 1 41888U 16078E 22145.91375903 .00004372 00000-0 22029-3 0 9996 2 41888 34.9504 337.3098 0015646 261.6304 98.2634 15.16486343301471 CYGFM06 1 41889U 16078F 22145.82369165 .00004050 00000-0 20245-3 0 9991 2 41889 34.9586 333.0074 0014105 260.8266 99.0850 15.16807368301547 CYGFM07 1 41890U 16078G 22145.80707312 .00004106 00000-0 20562-3 0 9995 2 41890 34.9519 331.9438 0013971 264.6201 95.2917 15.16741935301546 CYGFM03 1 41891U 16078H 22145.73978175 .00004076 00000-0 20423-3 0 9997 2 41891 34.9558 332.8285 0013498 262.3371 97.5808 15.16734606301379